Tracking 25612 objects as of 20-May-2022
HD Live streaming from Space Station
objects crossing your sky now

ONEWEB-0300

Track ONEWEB-0300 now!
10-day predictions
ONEWEB-0300 is classified as:


NORAD ID: 49089
Int'l Code: 2021-075Q
Perigee: 1,219.5 km
Apogee: 1,222.2 km
Inclination: 87.9 °
Period: 109.7 minutes
Semi major axis: 7591 km
RCS: Unknown
Launch date: August 21, 2021
Source: United Kingdom (UK)
Launch site: TYURATAM MISSILE AND SPACE COMPLEX (TTMTR)
aabbcc
Your satellite tracking list
Your tracking list is empty




NASA's NSSDC Master Catalog

Two Line Element Set (TLE):
1 49089U 21075Q   22140.58334491 -.00036188  00000-0 -10101+0 0  9991
2 49089  87.8694 286.5467 0001791  98.0324 313.9575 13.12451296  1307
Source of the keplerian elements: AFSPC